Dr. Bill's Marine Weather

Coastal Marine Forecast

       Alabama   Florida   Louisiana   Mississippi

Printer Friendly AL  FL  LA  MS

Data Buoys:   Western Gulf of Mexico    Eastern Gulf of Mexico
**********************************************************************
  Alabama
900 AM CST WED NOV 26 2014

ALZ051>064-261600-
SOUTHWEST ALABAMA
  
CITY           SKY/WX    TMP DP  RH WIND       PRES   REMARKS
MOBILE         SUNNY     48  28  46 N5        30.27R                  
BROOKLEY FIELD SUNNY     50  27  40 N7        30.28R                  
EVERGREEN      SUNNY     49  30  48 NW5       30.24R                  
**********************************************************************
  Florida
1000 AM EST WED NOV 26 2014

FLZ001>010-012>015-112-114-115-261600-
PANHANDLE FLORIDA
  
CITY           SKY/WX    TMP DP  RH WIND       PRES   REMARKS
PENSACOLA      SUNNY     48  30  49 NW8       30.25R WCI  44          
PENSACOLA NAS  SUNNY     49  33  54 NW9       30.26R WCI  45          
MILTON NAS     SUNNY     48  29  47 VRB7      30.25R WCI  45          
CRESTVIEW      SUNNY     49  31  49 NW7       30.24R                  
DUKE FIELD     MOSUNNY   47  31  53 NW8       30.22R WCI  43          
VALPARAISO     MOSUNNY   49  31  50 N10       30.23R WCI  45          
MARY ESTHER    SUNNY     50  25  37 N13       30.23R WCI  45          
TRI COUNTY     FAIR      48  35  60 VRB6      30.22R                  
PANAMA CITY    FAIR      48  35  60 NW12      30.21R WCI  43          
TYNDALL AFB    SUNNY     51  37  58 N12       30.22R                  
APALACHICOLA   MOSUNNY   54  39  57 N14       30.20R                  

STATION/POSITION SKY/WX   TEMP    WIND        PRES    WAVE   SWELL
                          AIR SEA DIR/SP/G            HT/PER HT/PER
                          (F)     (DEG/KT/KT) (MB)    (FT/S) (FT/S)
30.1N   87.6W              51 67  340/ 10/ 14 1024.3R   2/ 3
29.2N   88.2W              57 70  340/ 12/ 16 1025.6R   4/ 5
28.7N   86.0W              62 76  350/ 23/ 27 1022.4    8/ 7
PANAMA CITY BEAC           48 63  320/  7/ 10 1023.2R
CAPE SAN BLAS    NOT AVBL
TOWER C                    51     330/ 20/ 22 1022.3R
28.5N   84.5W              60 71  340/ 19/ 25 1021.4R   6/ 7

**********************************************************************
  Louisiana
900 AM CST WED NOV 26 2014

LAZ040-048-061>063-065-066-069-261600-
SOUTHEAST LOUISIANA
  
CITY           SKY/WX    TMP DP  RH WIND       PRES   REMARKS
N.O. AUDUBON     N/A     53  40  61 MISG        N/A                   
N.O. INTL ARPT MOSUNNY   51  40  65 S7        30.29R                  
N.O. LAKEFRONT SUNNY     52  37  56 S6        30.30R                  
N.O. DOWNTOWN* FAIR      52  36  54 S3        30.29S                  
SLIDELL        SUNNY     48  34  58 CALM      30.29R                  
BATON ROUGE    SUNNY     50  38  63 S6        30.27R                  
BOOTHVILLE     SUNNY     53  37  54 N3        30.31R                  
BELLE CHASSE   SUNNY     52  37  56 S3        30.29R                  
BOGALUSA*        N/A     45  35  68 CALM      30.30R                  
NEW ROADS*     FAIR      48  41  75 S5        30.26S                  
GONZALES*      FAIR      50  40  67 SE3       30.28S                  
HAMMOND*       SUNNY     46  37  71 CALM      30.30S                  
HOUMA*         NOT AVBL                                               
PORT FOURCHON* SUNNY     54  36  50 NE3       30.33S                  

**********************************************************************
  Mississippi
900 AM CST WED NOV 26 2014

MSZ080>082-261600-
COASTAL MISSISSIPPI
  
CITY           SKY/WX    TMP DP  RH WIND       PRES   REMARKS
BAY ST LOUIS   SUNNY     45  34  65 CALM      30.30R                  
BILOXI         SUNNY     47  28  47 VRB1      30.28R                  
PASCAGOULA     SUNNY     48  29  47 N3        30.28R                  
GULFPORT       SUNNY     47  30  51 CALM      30.28R                  
About Us | Coastal Marine Forecast | Offshore Marine Forecast | Marine Weather Discussion
Gulf Coast Tides | Exxon Mobil Platform 112B | Hourly Weather Observations | Weather Radar
Severe Weather Potential | Sea Surface Temperatures | Solar/Lunar Data | Hurricane Advisories | Home
     
USA Logo Dr. Bill's Marine Weather
Last date changed: February 4, 2005 12:04 PM
www.gulfmarineweather.com/hourlyweatherobservations.shtml
Contact Us